User: anonymous   Login
Location: Nebula Knoll Observatory
(43.6666°N, 71.0000°W)
Time: 01:49:49
(UTC-04:00)
Language:

Cosmos 1782 - Orbit

View from above orbital plane
View from above orbital plane
View from above satellite
View from above satellite

Ground track
Ground track

The orbit data is extracted from the following two-line orbital elements,

1 16986U 86074A   15087.78887333  .00004331  00000-0  30598-3 0  9992
2 16986 082.5098 189.7101 0011015 223.8234 136.2120 15.04645973548740
Epoch (UTC): 28 March 2015 18:55:58
Eccentricity: 0.0011015
inclination: 82.5098°
perigee height: 545 km
apogee height: 560 km
right ascension of ascending node: 189.7101°
argument of perigee: 223.8234°
revolutions per day: 15.04645973
mean anomaly at epoch: 136.2120°
orbit number at epoch: 54874

The dashed part of the orbit path shows where the satellite is in the earth's shadow,  

DLR